Hourly Data Report for September 21, 2017

All times are specified in Local Standard Time (LST). Add 1 hour to adjust for Daylight Saving Time where and when it is observed.

IQALUIT CLIMATE
NUNAVUT

63°44'50.000" N
68°32'40.000" W
33.50 m
2402592
71321
XFB

Download Data

Hourly Data (September 2017)
Hourly Data Report for September 21, 2017
Temp Definition
°C
Dew Point Temp Definition
°C
Rel Hum Definition
%
Wind Dir Definition
10's deg

Wind Spd Definition
km/h
Visibility Definition
km
Stn Press Definition
kPa
Hmdx Definition


Wind Chill Definition


Weather Definition


TIME
00:00 0.7 -0.4 92 32 6   101.98     LegendNANA
01:00 0.0 -1.0 93 1 4   101.97   -1 LegendNANA
02:00 0.6 -0.3 94 33 6   101.98     LegendNANA
03:00 1.1 -0.3 90 11 3   101.96     LegendNANA
04:00 1.0 -0.7 89 9 3   101.92     LegendNANA
05:00 1.6 -0.3 87 15 4   101.90     LegendNANA
06:00 1.6 -0.2 88 13 7   101.89     LegendNANA
07:00 2.3 0.1 86 13 5   101.87     LegendNANA
08:00 2.6 0.4 86 14 7   101.83     LegendNANA
09:00 2.7 0.4 85 17 11   101.77     LegendNANA
10:00 2.7 0.4 85 15 11   101.68     LegendNANA
11:00 3.3 0.2 80 18 14   101.62     LegendNANA
12:00 3.0 0.6 85 14 14   101.54     LegendNANA
13:00 3.1 0.2 81 17 17   101.45     LegendNANA
14:00 2.4 0.0 84 16 13   101.42     LegendNANA
15:00 2.5 0.5 86 15 18   101.37     LegendNANA
16:00 2.8 0.4 84 13 13   101.30     LegendNANA
17:00 2.0 0.0 87 14 17   101.25     LegendNANA
18:00 2.0 0.1 87 14 11   101.22     LegendNANA
19:00 1.5 0.0 90 16 6   101.14     LegendNANA
20:00 1.4 0.0 91 17 5   101.12     LegendNANA
21:00 1.2 0.2 93 16 6   101.08     LegendNANA
22:00 1.0 0.3 95 16 5   101.03     LegendNANA
23:00 1.0 0.3 95 20 5   100.97     LegendNANA

Notes on Data Quality.

Legend

  • E = Estimated
  • M = Missing
  • NA = Not Available
  • ‡ = Partner data that is not subject to review by the National Climate Archives
Date modified: